Location: Austin
(30.3000°N, 97.7500°W)
Time: 04:18:45
(UTC-06:00)

SWAS - Pass Details

Date: 05 February 2026
Orbit: 539 x 542 km, 69.9° (Epoch: 14 February)

Event Time Altitude Azimuth Distance (km) Brightness Sun altitude
Rises 06:19:48 0° 212° (SSW) 2,680 7.6 -13.2°
Reaches altitude 10° 06:22:02 10° 219° (SW) 1,791 6.7 -12.8°
Maximum altitude 06:25:53 46° 293° (WNW) 727 4.5 -11.9°
Drops below altitude 10° 06:29:45 10° 8° (N) 1,800 6.9 -11.1°
Sets 06:32:00 0° 14° (NNE) 2,694 7.9 -10.6°
